Change the Weather History Date:

Saturday, August 23, 2014

  Actual Average Record
Temperature  
Mean Temperature 50 °F 67 °F  
Max Temperature 53 °F 83 °F 98 °F (1967)
Min Temperature 47 °F 51 °F 33 °F (1992)
Degree Days  
Heating Degree Days 15 2  
Month to date heating degree days 22 20  
Since 1 June heating degree days 149 183  
Since 1 July heating degree days 22 47  
Cooling Degree Days 0 3  
Month to date cooling degree days 167 124  
Year to date cooling degree days 438 362  
Since 1 June cooling degree days 434 354  
Moisture  
Dew Point 45 °F    
Average Humidity 82    
Maximum Humidity 93    
Minimum Humidity 71    
Precipitation  
Precipitation 1.16 in 0.04 in 1.16 in (2014)
Month to date precipitation 2.01 0.88  
Year to date precipitation 8.76 8.23  
Snow  
Snow 0.00 in 0.00 in 3.10 in (1992)
Month to date snowfall 0.0 0.2  
Since 1 June snowfall 0.0 0.2  
Since 1 July snowfall 0.0 0.2  
Snow Depth 0.00 in    
Sea Level Pressure  
Sea Level Pressure 30.16 in    
Wind  
Wind Speed 12 mph (NW)    
Max Wind Speed 18 mph    
Max Gust Speed 25 mph    
Visibility 7 miles    
Events Rain    
T = Trace of Precipitation, MM = Missing Value Source: NWS Daily Summary

Daily Weather History Graph

Daily Weather History Graph

Search for Another Location

Airport or City:

Trip Planner

Search our weather history database for the weather conditions in past years. The results will help you decide how hot, cold, wet, or windy it might be!

Date:

Astronomy

Aug. 23, 2014 Rise Set
Actual Time 6:36 AM MDT 8:23 PM MDT
Civil Twilight 6:04 AM MDT 8:55 PM MDT
Nautical Twilight 5:24 AM MDT 9:34 PM MDT
Astronomical Twilight 4:41 AM MDT 10:17 PM MDT
Moon 4:53 AM MDT (8/23) 7:11 PM MDT (8/23)
Length of Visible Light 14h 51m
Length of Day
13h 47m
Waning Crescent, 3% of the Moon is Illuminated
Aug 23
Waning Crescent
Aug 25
New
Sep 2
First Quarter
Sep 8
Full
Sep 15
Last Quarter

Hourly Weather History & Observations

Time (MDT) Temp. Windchill Dew Point Humidity Pressure Visibility Wind Dir Wind Speed Gust Speed Precip Events Conditions
12:41 AM 51.8 °F - 48.2 °F 88% 30.14 in 6.0 mi NW 9.2 mph - 0.03 in Rain Light Rain
12:53 AM 50.0 °F - 48.0 °F 93% 30.14 in 5.0 mi WNW 5.8 mph - 0.04 in Rain Rain
1:53 AM 50.0 °F - 46.9 °F 89% 30.12 in 10.0 mi WNW 9.2 mph - 0.09 in Rain Light Rain
2:53 AM 50.0 °F - 46.4 °F 87% 30.11 in 10.0 mi WNW 8.1 mph - N/A Rain Light Rain
3:53 AM 50.0 °F - 46.0 °F 86% 30.12 in 10.0 mi WNW 10.4 mph - 0.02 in Rain Light Rain
5:53 AM 48.2 °F - 44.6 °F 87% 30.11 in 7.0 mi WNW 11.5 mph - N/A Rain Light Rain
6:53 AM 48.0 °F - 45.0 °F 89% 30.14 in 4.0 mi WNW 8.1 mph - 0.11 in Rain Rain
7:36 AM 48.2 °F - 44.6 °F 87% 30.12 in 3.0 mi NW 10.4 mph - 0.10 in Rain Rain
7:50 AM 46.4 °F 41.5 °F 44.6 °F 93% 30.12 in 2.5 mi NW 10.4 mph - 0.14 in Rain Rain
7:53 AM 46.9 °F - 45.0 °F 93% 30.14 in 2.5 mi NW 9.2 mph - 0.15 in Rain Rain
8:15 AM 48.2 °F - 44.6 °F 87% 30.12 in 3.0 mi WNW 10.4 mph - 0.05 in Rain Rain
8:41 AM 48.2 °F - 44.6 °F 87% 30.12 in 2.5 mi NW 11.5 mph - 0.13 in Rain Rain
8:53 AM 46.9 °F - 45.0 °F 93% 30.16 in 3.0 mi NW 11.5 mph - 0.16 in Rain Rain
9:00 AM 48.2 °F - 44.6 °F 87% 30.13 in 2.5 mi NW 11.5 mph - 0.03 in Rain Rain
9:11 AM 48.2 °F - 44.6 °F 87% 30.13 in 3.0 mi NW 10.4 mph - 0.07 in Rain Rain
9:24 AM 46.4 °F 40.7 °F 44.6 °F 93% 30.13 in 2.5 mi NW 12.7 mph - 0.11 in Rain Rain
9:49 AM 48.2 °F - 44.6 °F 87% 30.14 in 3.0 mi NW 10.4 mph - 0.20 in Rain Rain
9:53 AM 48.0 °F - 45.0 °F 89% 30.17 in 3.0 mi WNW 9.2 mph - 0.21 in Rain Rain
10:29 AM 48.2 °F - 44.6 °F 87% 30.14 in 2.5 mi WNW 10.4 mph - 0.10 in Rain Rain
10:43 AM 48.2 °F - 44.6 °F 87% 30.14 in 3.0 mi WNW 12.7 mph - 0.14 in Rain Rain
10:53 AM 48.0 °F - 45.0 °F 89% 30.19 in 3.0 mi WNW 10.4 mph - 0.17 in Rain Rain
11:53 AM 48.9 °F - 45.0 °F 86% 30.19 in 7.0 mi NW 11.5 mph - 0.08 in Rain Light Rain
12:53 PM 48.9 °F - 45.0 °F 86% 30.20 in 10.0 mi NW 13.8 mph - 0.06 in Rain Light Rain
1:53 PM 50.0 °F - 45.0 °F 83% 30.19 in 10.0 mi NW 12.7 mph - 0.03 in Rain Light Rain
2:53 PM 51.8 °F - 44.6 °F 76% 30.16 in 10.0 mi NW 16.1 mph - N/A Rain Light Rain
3:50 PM 51.8 °F - 46.4 °F 82% 30.16 in 10.0 mi NW 16.1 mph - 0.00 in Rain Light Rain
3:53 PM 52.0 °F - 46.0 °F 80% 30.20 in 10.0 mi NW 17.3 mph 21.9 mph 0.00 in Rain Light Rain
4:05 PM 51.8 °F - 44.6 °F 76% 30.16 in 10.0 mi NW 13.8 mph 21.9 mph 0.01 in   Overcast
4:53 PM 52.0 °F - 45.0 °F 77% 30.20 in 10.0 mi NW 13.8 mph - 0.01 in   Overcast
5:13 PM 51.8 °F - 44.6 °F 76% 30.15 in 10.0 mi NNW 18.4 mph 25.3 mph N/A   Overcast
5:53 PM 51.1 °F - 44.1 °F 77% 30.21 in 10.0 mi NW 15.0 mph - N/A   Overcast
6:53 PM 51.1 °F - 43.0 °F 74% 30.21 in 10.0 mi NNW 11.5 mph - N/A   Overcast
7:53 PM 51.1 °F - 44.1 °F 77% 30.22 in 10.0 mi WNW 12.7 mph - N/A   Overcast
8:03 PM 51.8 °F - 44.6 °F 76% 30.17 in 10.0 mi WNW 10.4 mph - N/A   Overcast
8:53 PM 51.1 °F - 43.0 °F 74% 30.22 in 10.0 mi WNW 13.8 mph - N/A   Overcast
9:53 PM 51.1 °F - 43.0 °F 74% 30.21 in 10.0 mi NW 11.5 mph - N/A   Overcast
10:09 PM 51.8 °F - 42.8 °F 71% 30.17 in 10.0 mi NNW 12.7 mph - N/A   Overcast
10:53 PM 50.0 °F - 44.1 °F 80% 30.22 in 10.0 mi NNW 8.1 mph - N/A   Overcast
11:26 PM 50.0 °F - 44.6 °F 82% 30.16 in 10.0 mi NW 10.4 mph - N/A   Overcast
11:53 PM 50.0 °F - 44.1 °F 80% 30.20 in 10.0 mi NW 11.5 mph - N/A   Overcast